SCP
0 0 0 0 0 0 0 0 0 0 0 -0 0 0 0 0 0 0 0 0 0 0 0 0 0 0 0 0 0 0 0 0 1 1 1 0 0 0
0 0 0 0 0 0 0 0 0 0 0 0 0 0 0 0 0 0 0 0 0 0 0 0 0 0 0 0 -0 0 0 0 0 0 0 0 0 0
0 0 0 0 0 0 0 0 0 0 -0 0 0 0 0 0 0 0 0 0 0 0 0 0 0 0 0 0 0 0 0 0 0 0 0 0 0 0
0 0 0 0 0 0 0 0 0 -0 0 0 0 0 0 0 0 0 0 0 0 0 0 0 0 0 0 0 0 0 0 0 0 0 0 0 0 0
0 -0 0 0 0 0 0 0 0 0 -0 0 0 0 0 0 0 0 0 0 0 0 0 0 0 0 0 0 0 0 0 0 0 0 0 0 0 0
0 -0 0 0 0 0 0 0 0 0 0 0 0 0 0 0 0 0 0 0 0 0 0 0 0 0 0 0 0 0 0 0 0 0 0 0 0 0
0 -0 0 0 -0 0 0 0 0 0 0 0 0 0 0 0 0 0 0 0 0 0 0 0 0 0 0 0 0 0 0 0 0 0 0 0 0 0
0 -0 -0 -0 -0 -0 -0 -0 -0 -0 0 0 0 0 0 0 0 0 0 0 0 0 0 0 0 0 0 0 0 0 0 0 0 0 0 0 0 0
0 -0 -0 0 -0 0 0 -0 -0 -0 -0 -0 -0 -0 0 0 0 0 0 0 0 0 0 0 0 0 0 0 0 0 0 0 0 0 0 0 0 0
0 0 0 0 0 0 0 0 0 0 -0 -0 -0 -0 0 0 0 0 0 0 0 0 0 0 0 0 0 0 0 0 0 0 0 0 0 0 0 0
0 0 0 0 -0 0 0 0 0 0 0 -0 -0 -0 -0 -0 0 0 0 0 0 0 0 0 0 0 0 0 0 0 0 0 0 0 0 0 0 0
0 0 0 0 0 0 0 0 0 0 0 0 0 0 0 0 0 0 0 0 0 0 0 0 0 0 0 0 0 0 0 0 0 0 0 0 0 0
0 0 0 0 0 0 0 0 0 0 0 0 0 0 0 0 0 0 0 0 0 0 0 0 0 0 0 0 0 0 0 0 0 0 0 0 0 0
0 0 0 0 0 0 0 0 0 0 0 0 0 0 0 0 0 0 0 0 0 0 0 0 0 0 0 0 0 0 0 0 0 0 0 0 0 0
0 0 0 0 0 0 0 0 0 0 0 0 0 0 0 0 0 0 0 0 0 0 0 0 0 0 0 0 0 0 0 0 0 0 0 0 0 0
0 0 0 0 0 0 0 0 0 0 0 0 0 0 0 0 0 0 0 0 0 0 0 0 0 0 0 0 0 0 0 0 0 0 0 0 0 0
0 0 0 0 0 0 0 0 0 0 0 0 0 0 0 0 0 0 0 0 0 0 0 0 0 0 0 0 0 0 0 0 0 0 0 0 0 0
0 0 0 0 0 0 0 0 0 0 0 0 0 0 0 0 0 0 0 0 0 0 0 0 0 0 0 0 0 0 0 0 0 0 0 0 0 0
0 0 0 0 0 0 0 0 0 0 0 0 0 0 0 0 0 0 0 0 0 0 0 -0 0 0 0 0 0 0 0 0 0 0 0 0 0 0
0 0 0 0 0 0 0 0 0 0 0 0 0 0 0 0 0 0 0 0 0 0 0 -0 0 0 0 0 0 -0 0 -0 -0 -0 0 0 0 -0
0 0 0 0 0 0 0 0 0 0 0 0 0 0 0 0 0 0 0 0 0 0 0 -0 0 0 0 -0 -0 -0 -0 0 -0 0 0 -0 -0 -0
0 0 0 0 0 0 0 0 0 0 -0 0 -0 -0 0 0 0 0 0 0 0 0 0 0 0 -0 -0 -0 -0 -0 -0 -0 0 0 0 -0 -0 0
0 0 0 0 0 0 0 0 0 0 0 0 0 0 0 0 0 0 0 0 0 0 0 -0 0 -0 -0 -0 0 -0 -0 -0 -0 -0 -0 0 -0 0
Wind_Speed_500mb
52 52 53 55 50 44 38 38 45 42 43 44 43 31 9 10 27 16 11 19 24 29 34 32 33 31 47 59 49 45 50 54 50 55 61 67 69 82
47 48 51 46 39 35 33 34 37 42 41 45 45 32 15 15 25 20 9 12 14 12 10 7 19 19 28 39 42 35 36 38 41 45 49 63 56 38
42 42 46 36 28 27 25 28 31 31 38 41 38 27 9 7 16 12 4 4 4 4 7 11 16 17 21 30 30 33 34 37 31 37 46 50 41 38
42 37 37 36 30 23 20 22 24 23 33 44 36 16 8 7 10 15 4 9 10 13 10 7 6 6 9 11 10 16 32 44 38 66 51 41 41 35
40 34 34 31 29 21 16 16 18 24 32 40 38 14 8 6 3 4 6 6 0 4 4 2 4 5 6 6 6 6 4 11 22 33 38 39 34 29
46 38 30 29 26 20 16 13 17 25 32 32 30 16 10 10 7 9 5 4 4 4 1 3 4 4 6 4 7 10 12 15 22 27 27 25 27 30
66 58 43 34 28 18 11 9 14 23 33 36 28 21 13 19 19 15 8 7 7 8 3 4 5 8 9 9 9 12 17 20 21 22 24 26 27 27
62 59 64 52 38 30 21 15 14 21 27 26 23 20 4 14 11 16 16 17 14 17 10 10 11 9 7 6 8 7 11 13 16 20 24 24 24 23
59 60 57 56 55 48 35 22 21 21 20 18 16 10 4 6 16 19 22 23 23 17 20 20 16 11 10 8 9 10 14 14 14 16 18 20 23 23
50 53 54 57 46 43 44 46 50 51 47 37 22 15 8 5 13 17 19 22 24 18 18 11 15 14 17 19 19 13 13 14 15 19 17 22 24 24
39 45 47 46 43 41 28 30 36 40 42 43 42 39 33 20 10 5 10 11 14 20 10 13 18 20 21 19 16 15 12 11 16 21 21 25 25 27
35 37 42 40 38 32 32 30 33 34 32 33 34 38 37 32 25 13 13 14 20 12 12 14 18 21 19 20 15 13 13 14 14 18 25 30 31 30
36 39 39 37 35 28 25 25 25 19 21 23 25 27 27 28 29 22 12 13 4 8 14 10 15 15 12 19 23 19 17 16 9 5 9 16 25 30
35 36 31 29 29 27 24 22 19 20 19 17 19 21 24 24 21 20 19 14 7 4 10 11 13 20 23 21 20 26 22 21 18 12 14 16 20 22
32 30 29 25 24 23 22 21 16 15 17 16 16 16 16 16 12 10 7 5 10 13 7 13 13 12 19 19 22 20 26 28 29 22 20 21 22 25
28 29 26 24 23 20 16 17 18 17 16 16 14 12 12 10 10 7 6 9 5 2 7 8 12 13 12 14 20 23 28 18 23 27 26 26 25 27
32 30 25 27 27 28 26 23 21 18 16 15 14 13 12 13 14 12 7 4 11 3 1 3 4 8 11 12 15 16 18 20 19 20 24 27 27 28
31 34 40 43 43 40 37 33 27 24 21 20 15 14 11 13 15 14 8 2 3 3 2 3 5 7 9 5 6 10 11 13 16 16 20 22 22 23
43 45 46 47 55 47 41 33 31 25 23 20 16 14 9 8 11 13 8 6 1 4 6 10 9 10 5 2 4 6 9 9 8 5 4 16 18 16
42 45 46 45 52 43 38 34 31 27 24 19 15 11 8 6 8 9 11 9 6 5 4 5 6 7 6 6 5 6 4 5 4 4 2 3 7 10
44 50 49 38 52 38 36 30 28 25 23 19 14 10 8 6 3 8 10 10 9 4 7 10 7 3 2 4 7 7 5 5 2 3 8 11 7 8
50 50 42 47 37 41 36 28 26 24 23 17 10 8 9 6 2 7 10 11 9 3 5 2 4 6 9 8 8 7 5 5 3 5 10 7 10 7
50 45 47 40 34 38 33 25 23 21 22 18 8 7 7 4 1 7 9 10 7 5 6 2 4 7 4 1 1 1 2 4 5 4 6 7 10 14
Wind_Direction_500mb
318 313 307 304 297 290 282 277 280 285 297 311 307 334 338 272 344 323 234 227 230 234 242 254 255 243 241 246 239 234 229 226 231 239 244 246 250 247
327 325 322 313 300 292 281 275 273 277 284 291 308 317 349 2 333 326 261 225 231 201 209 189 202 225 241 235 237 244 242 233 231 232 241 241 249 249
331 332 337 329 306 296 288 277 277 276 276 292 298 318 338 339 335 329 337 210 200 182 208 225 229 238 244 248 251 240 235 224 221 233 230 232 234 219
343 337 339 340 333 314 293 284 283 279 270 283 310 323 297 347 344 17 161 98 85 100 96 61 18 347 318 305 301 250 220 219 218 232 223 217 221 234
-0 346 349 347 350 340 310 291 283 292 302 301 305 314 277 259 333 76 133 78 69 204 213 238 293 286 256 234 224 159 163 209 209 219 216 221 235 236
22 11 356 349 347 342 335 313 298 306 320 335 327 333 220 253 224 209 174 226 216 214 208 178 190 264 257 200 187 209 187 195 190 184 186 193 204 211
36 37 33 25 17 2 352 358 332 327 326 330 346 26 205 223 213 209 207 226 265 239 192 190 227 187 174 156 165 167 176 180 184 188 194 186 184 185
36 36 42 40 33 35 35 10 347 331 330 340 358 32 327 234 222 223 235 232 238 251 229 241 208 205 186 180 171 168 170 172 179 179 177 174 173 179
34 36 38 42 46 48 53 52 46 40 24 358 355 356 308 216 236 233 245 250 241 244 223 226 222 197 171 165 162 174 184 196 203 200 191 193 186 178
27 29 26 28 35 48 53 56 57 61 58 54 45 25 6 258 238 227 236 230 231 237 195 199 187 170 151 138 126 135 163 183 195 194 199 196 194 190
18 20 18 18 19 29 37 48 51 51 49 48 47 52 57 49 73 126 162 189 180 167 126 138 147 146 145 146 139 136 135 160 187 200 204 207 208 208
4 5 8 2 3 18 32 48 55 50 45 45 46 46 39 43 54 84 112 123 131 124 124 134 176 162 168 175 179 181 194 196 220 230 229 226 228 228
1 1 1 0 7 2 19 29 38 38 46 43 52 51 46 39 36 48 91 139 164 125 154 152 188 188 185 201 210 213 208 201 186 172 227 237 239 233
1 358 1 358 360 9 11 19 13 17 22 27 18 25 27 28 30 28 33 48 47 112 171 202 213 212 216 209 200 207 210 217 228 229 249 234 230 228
4 356 344 353 357 360 4 360 359 357 14 9 19 19 15 12 0 2 8 7 346 330 282 250 226 227 209 211 210 212 212 223 232 227 235 233 247 246
6 2 358 360 4 5 1 1 5 5 4 12 9 2 347 347 346 341 305 288 308 23 338 251 222 233 235 225 221 224 218 219 235 226 236 241 246 249
357 352 350 352 356 355 4 6 6 7 8 8 3 357 356 356 6 15 347 301 239 239 279 173 179 206 217 229 232 225 225 220 227 235 239 248 253 247
358 355 4 7 3 359 356 354 358 1 357 358 354 355 2 4 4 12 19 331 248 236 254 202 197 197 188 171 204 223 234 224 236 244 245 242 243 243
9 11 6 2 1 358 353 349 349 348 345 346 349 352 358 21 360 10 34 31 351 264 251 249 243 204 206 225 188 172 177 190 220 265 271 233 235 238
2 358 353 352 346 347 345 344 340 338 341 344 346 347 350 352 0 3 22 5 330 302 284 226 225 231 221 230 226 190 192 213 213 237 241 214 212 205
349 348 348 340 340 342 340 338 338 335 338 341 346 349 345 333 337 339 355 10 4 335 119 117 108 123 204 248 239 214 212 188 257 325 245 226 215 197
345 335 334 333 340 340 343 335 339 343 341 344 340 350 353 350 333 338 351 358 347 184 160 92 310 272 275 269 261 260 234 184 166 101 82 101 201 230
339 334 334 336 333 335 341 340 341 340 339 341 355 353 5 25 37 355 352 347 346 194 211 8 322 315 271 120 79 202 152 161 183 189 205 231 245 237
Wind_Speed_850mb
52 52 53 55 50 44 38 38 45 42 43 44 43 31 9 10 27 16 11 19 24 29 34 32 33 31 47 59 49 45 50 54 50 55 61 67 69 82
47 48 51 46 39 35 33 34 37 42 41 45 45 32 15 15 25 20 9 12 14 12 10 7 19 19 28 39 42 35 36 38 41 45 49 63 56 38
42 42 46 36 28 27 25 28 31 31 38 41 38 27 9 7 16 12 4 4 4 4 7 11 16 17 21 30 30 33 34 37 31 37 46 50 41 38
42 37 37 36 30 23 20 22 24 23 33 44 36 16 8 7 10 15 4 9 10 13 10 7 6 6 9 11 10 16 32 44 38 66 51 41 41 35
40 34 34 31 29 21 16 16 18 24 32 40 38 14 8 6 3 4 6 6 0 4 4 2 4 5 6 6 6 6 4 11 22 33 38 39 34 29
46 38 30 29 26 20 16 13 17 25 32 32 30 16 10 10 7 9 5 4 4 4 1 3 4 4 6 4 7 10 12 15 22 27 27 25 27 30
66 58 43 34 28 18 11 9 14 23 33 36 28 21 13 19 19 15 8 7 7 8 3 4 5 8 9 9 9 12 17 20 21 22 24 26 27 27
62 59 64 52 38 30 21 15 14 21 27 26 23 20 4 14 11 16 16 17 14 17 10 10 11 9 7 6 8 7 11 13 16 20 24 24 24 23
59 60 57 56 55 48 35 22 21 21 20 18 16 10 4 6 16 19 22 23 23 17 20 20 16 11 10 8 9 10 14 14 14 16 18 20 23 23
50 53 54 57 46 43 44 46 50 51 47 37 22 15 8 5 13 17 19 22 24 18 18 11 15 14 17 19 19 13 13 14 15 19 17 22 24 24
39 45 47 46 43 41 28 30 36 40 42 43 42 39 33 20 10 5 10 11 14 20 10 13 18 20 21 19 16 15 12 11 16 21 21 25 25 27
35 37 42 40 38 32 32 30 33 34 32 33 34 38 37 32 25 13 13 14 20 12 12 14 18 21 19 20 15 13 13 14 14 18 25 30 31 30
36 39 39 37 35 28 25 25 25 19 21 23 25 27 27 28 29 22 12 13 4 8 14 10 15 15 12 19 23 19 17 16 9 5 9 16 25 30
35 36 31 29 29 27 24 22 19 20 19 17 19 21 24 24 21 20 19 14 7 4 10 11 13 20 23 21 20 26 22 21 18 12 14 16 20 22
32 30 29 25 24 23 22 21 16 15 17 16 16 16 16 16 12 10 7 5 10 13 7 13 13 12 19 19 22 20 26 28 29 22 20 21 22 25
28 29 26 24 23 20 16 17 18 17 16 16 14 12 12 10 10 7 6 9 5 2 7 8 12 13 12 14 20 23 28 18 23 27 26 26 25 27
32 30 25 27 27 28 26 23 21 18 16 15 14 13 12 13 14 12 7 4 11 3 1 3 4 8 11 12 15 16 18 20 19 20 24 27 27 28
31 34 40 43 43 40 37 33 27 24 21 20 15 14 11 13 15 14 8 2 3 3 2 3 5 7 9 5 6 10 11 13 16 16 20 22 22 23
43 45 46 47 55 47 41 33 31 25 23 20 16 14 9 8 11 13 8 6 1 4 6 10 9 10 5 2 4 6 9 9 8 5 4 16 18 16
42 45 46 45 52 43 38 34 31 27 24 19 15 11 8 6 8 9 11 9 6 5 4 5 6 7 6 6 5 6 4 5 4 4 2 3 7 10
44 50 49 38 52 38 36 30 28 25 23 19 14 10 8 6 3 8 10 10 9 4 7 10 7 3 2 4 7 7 5 5 2 3 8 11 7 8
50 50 42 47 37 41 36 28 26 24 23 17 10 8 9 6 2 7 10 11 9 3 5 2 4 6 9 8 8 7 5 5 3 5 10 7 10 7
50 45 47 40 34 38 33 25 23 21 22 18 8 7 7 4 1 7 9 10 7 5 6 2 4 7 4 1 1 1 2 4 5 4 6 7 10 14
Wind_Direction_850mb
318 313 307 304 297 290 282 277 280 285 297 311 307 334 338 272 344 323 234 227 230 234 242 254 255 243 241 246 239 234 229 226 231 239 244 246 250 247
327 325 322 313 300 292 281 275 273 277 284 291 308 317 349 2 333 326 261 225 231 201 209 189 202 225 241 235 237 244 242 233 231 232 241 241 249 249
331 332 337 329 306 296 288 277 277 276 276 292 298 318 338 339 335 329 337 210 200 182 208 225 229 238 244 248 251 240 235 224 221 233 230 232 234 219
343 337 339 340 333 314 293 284 283 279 270 283 310 323 297 347 344 17 161 98 85 100 96 61 18 347 318 305 301 250 220 219 218 232 223 217 221 234
-0 346 349 347 350 340 310 291 283 292 302 301 305 314 277 259 333 76 133 78 69 204 213 238 293 286 256 234 224 159 163 209 209 219 216 221 235 236
22 11 356 349 347 342 335 313 298 306 320 335 327 333 220 253 224 209 174 226 216 214 208 178 190 264 257 200 187 209 187 195 190 184 186 193 204 211
36 37 33 25 17 2 352 358 332 327 326 330 346 26 205 223 213 209 207 226 265 239 192 190 227 187 174 156 165 167 176 180 184 188 194 186 184 185
36 36 42 40 33 35 35 10 347 331 330 340 358 32 327 234 222 223 235 232 238 251 229 241 208 205 186 180 171 168 170 172 179 179 177 174 173 179
34 36 38 42 46 48 53 52 46 40 24 358 355 356 308 216 236 233 245 250 241 244 223 226 222 197 171 165 162 174 184 196 203 200 191 193 186 178
27 29 26 28 35 48 53 56 57 61 58 54 45 25 6 258 238 227 236 230 231 237 195 199 187 170 151 138 126 135 163 183 195 194 199 196 194 190
18 20 18 18 19 29 37 48 51 51 49 48 47 52 57 49 73 126 162 189 180 167 126 138 147 146 145 146 139 136 135 160 187 200 204 207 208 208
4 5 8 2 3 18 32 48 55 50 45 45 46 46 39 43 54 84 112 123 131 124 124 134 176 162 168 175 179 181 194 196 220 230 229 226 228 228
1 1 1 0 7 2 19 29 38 38 46 43 52 51 46 39 36 48 91 139 164 125 154 152 188 188 185 201 210 213 208 201 186 172 227 237 239 233
1 358 1 358 360 9 11 19 13 17 22 27 18 25 27 28 30 28 33 48 47 112 171 202 213 212 216 209 200 207 210 217 228 229 249 234 230 228
4 356 344 353 357 360 4 360 359 357 14 9 19 19 15 12 0 2 8 7 346 330 282 250 226 227 209 211 210 212 212 223 232 227 235 233 247 246
6 2 358 360 4 5 1 1 5 5 4 12 9 2 347 347 346 341 305 288 308 23 338 251 222 233 235 225 221 224 218 219 235 226 236 241 246 249
357 352 350 352 356 355 4 6 6 7 8 8 3 357 356 356 6 15 347 301 239 239 279 173 179 206 217 229 232 225 225 220 227 235 239 248 253 247
358 355 4 7 3 359 356 354 358 1 357 358 354 355 2 4 4 12 19 331 248 236 254 202 197 197 188 171 204 223 234 224 236 244 245 242 243 243
9 11 6 2 1 358 353 349 349 348 345 346 349 352 358 21 360 10 34 31 351 264 251 249 243 204 206 225 188 172 177 190 220 265 271 233 235 238
2 358 353 352 346 347 345 344 340 338 341 344 346 347 350 352 0 3 22 5 330 302 284 226 225 231 221 230 226 190 192 213 213 237 241 214 212 205
349 348 348 340 340 342 340 338 338 335 338 341 346 349 345 333 337 339 355 10 4 335 119 117 108 123 204 248 239 214 212 188 257 325 245 226 215 197
345 335 334 333 340 340 343 335 339 343 341 344 340 350 353 350 333 338 351 358 347 184 160 92 310 272 275 269 261 260 234 184 166 101 82 101 201 230
339 334 334 336 333 335 341 340 341 340 339 341 355 353 5 25 37 355 352 347 346 194 211 8 322 315 271 120 79 202 152 161 183 189 205 231 245 237